When you browse on this site, cookies collect data to enhance your experience and personalize the content and advertising you see.
Visit our Privacy Policy to learn more. By continuing to use the site, you agree to this use of cookies and data.
  • In Sweden
  • List of Countries
  • For 7 days
  • Water Temperature
  • Satellite Maps
  • Weather Map
  • Weather Widgets
  • user-avatar
    Login

    Hourly Weather Arykbalyk

    Today, 20 June, Thursday

    Time Temperature Precipitation Wind Pressure Humidity
    00:00 +10°C° 0 mm 1 mps 725 mmHg 75%
    01:00 +9°C° 0 mm 2 mps 725 mmHg 75%
    02:00 +9°C° 0 mm 2 mps 725 mmHg 76%
    03:00 +9°C° 0 mm 2 mps 725 mmHg 77%
    04:00 +9°C° 0 mm 2 mps 725 mmHg 79%
    05:00 +9°C° 0 mm 2 mps 725 mmHg 81%
    06:00 +11°C° 0 mm 3 mps 726 mmHg 77%
    07:00 +12°C° 0 mm 3 mps 726 mmHg 74%
    08:00 +14°C° 0 mm 3 mps 726 mmHg 71%
    09:00 +16°C° 0 mm 3 mps 726 mmHg 66%
    10:00 +17°C° 0 mm 2 mps 726 mmHg 61%
    11:00 +19°C° 0 mm 2 mps 726 mmHg 55%
    12:00 +19°C° 0 mm 2 mps 726 mmHg 53%
    13:00 +21°C° 0 mm 1 mps 726 mmHg 51%
    14:00 +22°C° 0 mm 1 mps 726 mmHg 48%
    15:00 +22°C° 0 mm 1 mps 726 mmHg 49%
    16:00 +22°C° 0 mm 1 mps 726 mmHg 49%
    17:00 +22°C° 0 mm 1 mps 726 mmHg 49%
    18:00 +21°C° 0 mm 1 mps 725 mmHg 55%
    19:00 +19°C° 0 mm 1 mps 725 mmHg 61%
    20:00 +18°C° 0 mm 1 mps 725 mmHg 67%
    21:00 +16°C° 0 mm 2 mps 725 mmHg 67%
    22:00 +15°C° 0 mm 2 mps 725 mmHg 68%
    23:00 +14°C° 0 mm 2 mps 725 mmHg 69%

    Tomorrow, 21 June, Friday

    Time Temperature Precipitation Wind Pressure Humidity
    00:00 +14°C° 0 mm 2 mps 724 mmHg 69%
    01:00 +13°C° 0 mm 2 mps 724 mmHg 70%
    02:00 +12°C° 0 mm 3 mps 724 mmHg 71%
    03:00 +12°C° 0 mm 3 mps 724 mmHg 73%
    04:00 +12°C° 0 mm 3 mps 724 mmHg 76%
    05:00 +12°C° 0 mm 3 mps 724 mmHg 78%
    06:00 +14°C° 0 mm 3 mps 724 mmHg 75%
    07:00 +17°C° 0 mm 4 mps 724 mmHg 71%
    08:00 +19°C° 0 mm 4 mps 724 mmHg 68%
    09:00 +20°C° 0 mm 4 mps 724 mmHg 64%
    10:00 +21°C° 0 mm 4 mps 724 mmHg 59%
    11:00 +23°C° 0 mm 4 mps 724 mmHg 54%
    12:00 +23°C° 0 mm 4 mps 724 mmHg 52%
    13:00 +25°C° 0 mm 4 mps 723 mmHg 50%
    14:00 +25°C° 0 mm 4 mps 723 mmHg 48%
    15:00 +26°C° 0 mm 4 mps 723 mmHg 48%
    16:00 +26°C° 0 mm 4 mps 723 mmHg 49%
    17:00 +26°C° 0 mm 4 mps 723 mmHg 50%
    18:00 +22°C° 0.7 mm 4 mps 723 mmHg 61%
    19:00 +20°C° 0.7 mm 4 mps 722 mmHg 72%
    20:00 +18°C° 0.7 mm 3 mps 722 mmHg 83%
    21:00 +17°C° 0.3 mm 3 mps 722 mmHg 85%
    22:00 +16°C° 0.3 mm 3 mps 723 mmHg 87%
    23:00 +14°C° 0.3 mm 3 mps 723 mmHg 89%

    Day after tomorrow, 22 June, Saturday

    Time Temperature Precipitation Wind Pressure Humidity
    00:00 +13°C° 0 mm 3 mps 723 mmHg 89%
    01:00 +12°C° 0 mm 3 mps 723 mmHg 88%
    02:00 +12°C° 0 mm 2 mps 723 mmHg 88%
    03:00 +12°C° 0 mm 2 mps 724 mmHg 89%
    04:00 +10°C° 0 mm 2 mps 724 mmHg 89%
    05:00 +10°C° 0 mm 2 mps 724 mmHg 90%
    06:00 +11°C° 0 mm 3 mps 725 mmHg 84%
    07:00 +12°C° 0 mm 3 mps 725 mmHg 78%
    08:00 +14°C° 0 mm 3 mps 726 mmHg 73%
    09:00 +14°C° 0 mm 4 mps 726 mmHg 68%
    10:00 +15°C° 0 mm 4 mps 726 mmHg 64%
    11:00 +15°C° 0 mm 5 mps 727 mmHg 60%
    12:00 +16°C° 0.1 mm 5 mps 727 mmHg 59%
    13:00 +16°C° 0.1 mm 5 mps 727 mmHg 59%
    14:00 +16°C° 0.1 mm 6 mps 727 mmHg 58%
    15:00 +16°C° 0 mm 6 mps 728 mmHg 57%
    16:00 +15°C° 0 mm 6 mps 728 mmHg 57%
    17:00 +15°C° 0 mm 6 mps 728 mmHg 56%
    18:00 +14°C° 0 mm 5 mps 728 mmHg 62%
    19:00 +13°C° 0 mm 3 mps 728 mmHg 67%
    20:00 +13°C° 0 mm 2 mps 728 mmHg 73%
    21:00 +12°C° 0 mm 2 mps 728 mmHg 75%
    22:00 +11°C° 0 mm 1 mps 728 mmHg 76%
    23:00 +9°C° 0 mm 0 mps 729 mmHg 78%

    23 June, Sunday

    Time Temperature Precipitation Wind Pressure Humidity
    00:00 +9°C° 0 mm 1 mps 728 mmHg 78%
    01:00 +9°C° 0 mm 1 mps 728 mmHg 77%
    02:00 +8°C° 0 mm 2 mps 728 mmHg 77%
    03:00 +8°C° 0 mm 2 mps 728 mmHg 78%
    04:00 +8°C° 0 mm 2 mps 728 mmHg 80%
    05:00 +8°C° 0 mm 2 mps 728 mmHg 81%
    06:00 +10°C° 0 mm 3 mps 728 mmHg 76%
    07:00 +12°C° 0 mm 3 mps 728 mmHg 71%
    08:00 +14°C° 0 mm 3 mps 728 mmHg 67%
    09:00 +17°C° 0 mm 4 mps 728 mmHg 64%
    10:00 +17°C° 0 mm 5 mps 728 mmHg 60%
    11:00 +20°C° 0 mm 6 mps 728 mmHg 57%
    12:00 +21°C° 0 mm 6 mps 727 mmHg 56%
    13:00 +22°C° 0 mm 6 mps 727 mmHg 55%
    14:00 +23°C° 0 mm 6 mps 727 mmHg 55%
    15:00 +23°C° 0 mm 6 mps 726 mmHg 56%
    16:00 +23°C° 0 mm 5 mps 726 mmHg 58%
    17:00 +23°C° 0 mm 5 mps 725 mmHg 60%
    18:00 +22°C° 0.2 mm 5 mps 725 mmHg 66%
    19:00 +21°C° 0.2 mm 5 mps 725 mmHg 72%
    20:00 +20°C° 0.2 mm 5 mps 724 mmHg 78%
    21:00 +19°C° 0.3 mm 5 mps 724 mmHg 83%
    22:00 +18°C° 0.3 mm 4 mps 723 mmHg 88%
    23:00 +17°C° 0.3 mm 4 mps 723 mmHg 93%

    24 June, Monday

    Time Temperature Precipitation Wind Pressure Humidity
    00:00 +17°C° 0 mm 4 mps 723 mmHg 92%
    01:00 +16°C° 0 mm 5 mps 723 mmHg 91%
    02:00 +16°C° 0 mm 5 mps 722 mmHg 90%
    03:00 +16°C° 0 mm 5 mps 722 mmHg 91%
    04:00 +17°C° 0 mm 4 mps 722 mmHg 92%
    05:00 +17°C° 0 mm 4 mps 722 mmHg 94%
    06:00 +18°C° 0 mm 4 mps 723 mmHg 91%
    07:00 +19°C° 0 mm 4 mps 723 mmHg 88%
    08:00 +20°C° 0 mm 4 mps 723 mmHg 86%
    09:00 +22°C° 0.1 mm 5 mps 723 mmHg 80%
    10:00 +23°C° 0.1 mm 5 mps 723 mmHg 75%
    11:00 +25°C° 0.1 mm 5 mps 723 mmHg 69%
    12:00 +26°C° 0.2 mm 5 mps 723 mmHg 68%
    13:00 +26°C° 0.2 mm 5 mps 723 mmHg 67%
    14:00 +27°C° 0.2 mm 5 mps 723 mmHg 66%
    15:00 +27°C° 0.5 mm 5 mps 723 mmHg 67%
    16:00 +27°C° 0.5 mm 4 mps 723 mmHg 67%
    17:00 +27°C° 0.5 mm 4 mps 723 mmHg 68%
    18:00 +25°C° 0.6 mm 4 mps 723 mmHg 73%
    19:00 +24°C° 0.6 mm 3 mps 723 mmHg 78%
    20:00 +22°C° 0.6 mm 3 mps 723 mmHg 84%
    21:00 +21°C° 0.1 mm 3 mps 723 mmHg 86%
    22:00 +20°C° 0.1 mm 2 mps 723 mmHg 88%
    23:00 +19°C° 0.1 mm 2 mps 723 mmHg 90%

    25 June, Tuesday

    Time Temperature Precipitation Wind Pressure Humidity
    00:00 +18°C° 0 mm 2 mps 723 mmHg 91%
    01:00 +17°C° 0 mm 2 mps 723 mmHg 91%
    02:00 +16°C° 0 mm 2 mps 723 mmHg 91%
    03:00 +16°C° 0 mm 2 mps 723 mmHg 89%
    04:00 +15°C° 0 mm 2 mps 723 mmHg 87%
    05:00 +15°C° 0 mm 2 mps 723 mmHg 85%
    06:00 +17°C° 0 mm 2 mps 724 mmHg 80%
    07:00 +18°C° 0 mm 2 mps 724 mmHg 75%
    08:00 +20°C° 0 mm 2 mps 725 mmHg 71%
    09:00 +21°C° 0 mm 3 mps 725 mmHg 66%
    10:00 +22°C° 0 mm 3 mps 725 mmHg 62%
    11:00 +23°C° 0 mm 4 mps 725 mmHg 58%
    12:00 +23°C° 0.1 mm 4 mps 725 mmHg 57%
    13:00 +23°C° 0.1 mm 4 mps 725 mmHg 57%
    14:00 +23°C° 0.1 mm 5 mps 726 mmHg 56%
    15:00 +23°C° 0 mm 5 mps 726 mmHg 57%
    16:00 +22°C° 0 mm 5 mps 726 mmHg 58%
    17:00 +22°C° 0 mm 5 mps 726 mmHg 59%
    18:00 +20°C° 0 mm 4 mps 726 mmHg 64%
    19:00 +19°C° 0 mm 4 mps 726 mmHg 69%
    20:00 +18°C° 0 mm 3 mps 726 mmHg 74%
    21:00 +17°C° 0 mm 2 mps 726 mmHg 75%
    22:00 +15°C° 0 mm 2 mps 726 mmHg 76%
    23:00 +14°C° 0 mm 2 mps 727 mmHg 77%
    Show more